Location: Bovenkerk
(52.2915°N, 4.8336°E)
Time: 14:06:24
(UTC+00:00)

Cosmos 1833 Rocket - Pass Details

Date: 09 April 2020
Orbit: 834 x 838 km, 71.0° (Epoch: 02 June)

Event Time Altitude Azimuth Distance (km) Brightness Sun altitude
Exits shadow 22:20:56 37° 242° (WSW) 1,273 3.5 -27.2°
Maximum altitude 22:23:01 61° 306° (NW) 950 3.1 -27.4°
Drops below altitude 10° 22:28:37 10° 27° (NNE) 2,462 5.6 -27.7°
Sets 22:31:06 0° 31° (NNE) 3,399 6.4 -27.8°
